Flag for Germany Weather past 2 weeks in Bremerhaven, Bremen, Germany

Now
63 °F

Fog.


Feels Like: 63 °F
Forecast: 56 / 66 °F
Wind: 7 mph from Southwest

Location: Nordholz

Current Time: Oct 1, 2014 at 12:12:47 PM

Latest Report: Oct 1, 2014 at 11:52 AM


Visibility: 2 mi

Pressure: 30.27 "Hg

Humidity: 88%

Dew point: 59 °F

Location of BremerhavenLocation

Historic Weather in Bremerhaven — Graph

°F

Bremerhaven temperature yesterday

Maximum temperature yesterday: 64 °F (at 2:20 PM)
Minimum temperature yesterday: 57 °F (at 11:20 PM)
Average temperature yesterday: 61 °F

Past Weeks' High & Low Weather Summary

 TemperatureHumidityPressure
High75 °F (Sep 19, 3:20 PM)100% (Sep 18, 6:20 AM)30.36 "Hg (Sep 18, 6:20 AM)
Low43 °F (Sep 23, 5:20 AM)49% (Sep 27, 3:20 PM)29.74 "Hg (Sep 24, 3:51 PM)
Average60 °F80%30.04 "Hg
* Reported Sep 16 10:20 AM — Oct 1 10:20 AM, Bremerhaven, Weather by CustomWeather, © 2014

Note: Actual official high and low records may vary slightly from our data, if they occured in-between our weather recording intervals... More about our weather records

Advertising

Bremerhaven weather history for previous 24 hours

 ConditionsComfort  
Time TempWeatherWind HumidityBarometerVisibility
10:20 AM
Oct 1
59 °FFog.6 mph94%30.27 "Hg2 mi
9:20 AM57 °FFog.5 mph94%30.27 "Hg1 mi
8:20 AM55 °FFog.6 mph94%30.27 "Hg1 mi
7:20 AM55 °FFog.5 mph94%30.24 "Hg1 mi
6:55 AM55 °FFog.3 mph94%30.24 "Hg1 mi
6:20 AM54 °FFog.5 mph100%30.27 "Hg1 mi
5:20 AM54 °FFog.6 mph100%30.27 "Hg1 mi
4:20 AM55 °FFog.7 mph94%30.27 "Hg1 mi
3:20 AM55 °FFog.7 mph94%30.27 "Hg1 mi
2:20 AM55 °FFog.7 mph100%30.27 "Hg1 mi
1:20 AM57 °FFog.6 mph94%30.24 "Hg1 mi
12:20 AM55 °FFog.6 mph100%30.24 "Hg1 mi
12:01 AM55 °FFog.6 mph94%30.24 "Hg1 mi
11:20 PM
Sep 30
57 °FFog.3 mph94%30.24 "Hg0 mi
10:20 PM59 °FFog.6 mph94%30.24 "Hg3 mi
9:20 PM61 °FFog.5 mph94%30.24 "Hg3 mi
8:20 PM61 °FFog.2 mph88%30.24 "Hg3 mi
7:20 PM61 °FFog.5 mph94%30.21 "Hg2 mi
6:20 PM63 °FFog.5 mph88%30.21 "Hg2 mi
5:53 PM63 °FFog.7 mph88%30.21 "Hg2 mi
5:20 PM63 °FFog.6 mph88%30.21 "Hg2 mi
4:20 PM63 °FFog.6 mph88%30.21 "Hg2 mi
3:20 PM64 °FSprinkles. Fog.12 mph83%30.21 "Hg2 mi
2:20 PM64 °FFog.9 mph88%30.21 "Hg2 mi
1:20 PM63 °FFog.10 mph88%30.21 "Hg2 mi
12:20 PM63 °FFog.9 mph88%30.18 "Hg2 mi
Weather by CustomWeather, © 2014

See weather overviewHow to use our weather pages